Find Starlink 3525

NORAD ID: 51733 Int'l Des: 2022-016 Owner: SPXS Country: US Constellation: starlink operational
LEOCIRCULAR

現在のビュー

3D地球を読み込み中...

About Starlink 3525

Starlink 3525 (NORAD 51733) is a starlink constellation satellite (v1.5) launched Feb 21, 2022 by SPXS of US. It operates in LEO, CIRCULAR orbit with a mass of 297.00 kg.

Starlink 3525について

説明を読み込み中...

次回通過

Passes for default location (London). Set your location on the main map for personalized predictions.

高度履歴

Loading altitude history...

軌道要素

1 51733U 22016V 26168.49527688 .00000545 00000-0 52328-4 0 9990
2 51733 53.1585 230.9885 0001227 89.3665 270.7467 15.08831557238630
Epoch: Jun 17, 2026 • Age: 17 hours

現在のステータス

高度 539.7 km
速度 7.59 km/s
衛星直下点 10.90°N, 65.41°E
打ち上げ日 Feb 21, 2022
運用期間 4.3 years
タイプ internet

技術仕様

分類 Payload
質量 297.00 kg
乾燥質量 275.00 kg
総質量 297.00 kg
長さ 0.20 m
直径 2.80 m
スパン 9.00 m
形状 Box + pan
製造者 SPXS
バスタイプ Starlink
フェーズステータス In Orbit
所有者/国 SPXS/US

Most Searched